Regional Weather Roundup
Issued by NWS

Home | Current Version | Previous Version | Graphics & Text | Print | Product List | Glossary On
Versions: 1 2 3 4 5 6 7 8 9 10 11 12 13 14 15 16 17 18 19 20 21 22 23 24 25 26 27 28 29 30 31 32 33 34 35 36 37 38 39 40 41 42 43 44 45 46 47 48 49 50
000
ASUS45 KBOU 291607
RWRCO

WEATHER ROUNDUP FOR COLORADO
NATIONAL WEATHER SERVICE DENVER/BOULDER CO
1000 AM MDT FRI MAY 29 2015

NOTE: "FAIR" INDICATES FEW OR NO CLOUDS BELOW 12000 FEET WITH NO
SIGNIFICANT WEATHER AND/OR OBSTRUCTIONS TO VISIBILITY.

COZ001>005-013-030-031-291700-
...NORTHWEST COLORADO...

CITY           SKY/WX    TMP DP  RH WIND       PRES   REMARKS
CRAIG          CLOUDY    53  42  66 SW5       30.30S
HAYDEN         CLOUDY    48  36  61 CALM      30.31S
MEEKER         SUNNY     53  40  61 W3        30.30S
MOUNT WERNER   NOT AVBL
STEAMBOAT SPGS CLOUDY    46  38  75 CALM      30.32R
WALDEN         CLOUDY    45  34  65 CALM      30.32S
$$

COZ006>008-011-291700-
...WEST CENTRAL VALLEYS...

CITY           SKY/WX    TMP DP  RH WIND       PRES   REMARKS
GRAND JUNCTION SUNNY     61  43  51 SE7       30.23S
MONTROSE       SUNNY     57  42  57 CALM      30.28S
EAGLE          MOSUNNY   61  46  59 CALM      30.32S
RIFLE          SUNNY     57  41  55 VRB3      30.27S
DELTA          SUNNY     62  42  47 E3        30.26S
NUCLA          SUNNY     57  43  58 CALM      30.29S
$$

COZ017>023-064>068-291700-
...SOUTHWEST COLORADO...

CITY           SKY/WX    TMP DP  RH WIND       PRES   REMARKS
DURANGO        SUNNY     61  36  39 SW3       30.24S
CORTEZ         SUNNY     64  38  38 CALM      30.23R
PAGOSA SPRINGS SUNNY     59  27  30 CALM      30.28S
TELLURIDE      SUNNY     51  28  41 W6        30.37S
WOLF CREEK PAS NOT AVBL
$$

COZ009-010-012-014-032>034-037-058>063-291700-
...CENTRAL COLORADO...

CITY           SKY/WX    TMP DP  RH WIND       PRES   REMARKS
ASPEN          MOSUNNY   52  32  46 N6        30.30F
BUENA VISTA    SUNNY     53  25  33 E3        30.29F
COPPER MTN     CLOUDY    34  27  75 W14G20    30.44S WCI  24
BERTHOUD PASS  HAZE      25  18  74 NW13G21   30.45S VSB<1/4 WCI  13
COTTONWOOD PAS MOSUNNY   48  23  37 SW10G18   30.36F
GUNNISON       PTSUNNY   46  36  66 E3        30.36F
KREMMLING      PTSUNNY   50  37  62 E5        30.33F
LEADVILLE      PTSUNNY   44  26  49 NW10G18   30.35S
MONARCH PASS   CLOUDY    32  28  86 MISG      30.55R
SALIDA         SUNNY     57  32  37 NW7       30.34F
SUNLIGHT       PTSUNNY   39  32  75 NW3         N/A
WILKERSON PASS SUNNY     41  23  48 W5        30.43S
$$

COZ069>075-291700-
...SAN LUIS VALLEY/SANGRE DE CRISTO MOUNTAINS...

CITY           SKY/WX    TMP DP  RH WIND       PRES   REMARKS
ALAMOSA        SUNNY     55  33  43 VRB5      30.28S
LA VETA PASS   SUNNY    N/A N/A N/A MISG      30.37S
SAGUACHE       SUNNY     54  32  43 NW14      30.30F
$$

COZ035-036-038>040-291700-
...NORTHERN COLORADO FRONT RANGE...

CITY           SKY/WX    TMP DP  RH WIND       PRES   REMARKS
DENVER INTL AP MOSUNNY   61  44  53 N9        30.21S
DMNS CITY PARK   N/A     62  42  48 NE5G10    30.20S
AURORA         MOSUNNY   59  43  55 NE8       30.23R
FRONT RANGE AP PTSUNNY   61  46  59 N9        30.22S
ERIE MUNI ARPT SUNNY     62  42  47 NE5       30.20F
BOULDER MUN AP CLOUDY    59  43  55 NE5       30.20S
CENTENNIAL     MOSUNNY   58  44  60 VRB3      30.22S
BROOMFIELD     MOSUNNY   59  45  58 E6        30.22S
FORT COLLINS   MOSUNNY   61  43  51 N6        30.21F
LONGMONT       PTSUNNY   64  44  47 E6        30.21F
$$

COZ041-046-047-076>085-087-088-291700-
...PIKES PEAK/PALMER DIVIDE AND SOUTHERN FOOTHILLS...

CITY           SKY/WX    TMP DP  RH WIND       PRES   REMARKS
COLO. SPRINGS  PTSUNNY   60  40  47 NE9       30.21F
A. F. ACADEMY  MOSUNNY   59  38  46 N8        30.22S
ELLICOTT       SUNNY    N/A N/A N/A N14G22    30.20S
FALCON         PTSUNNY   57  40  51 N12       30.25S
FORT CARSON    SUNNY     63  42  47 E7        30.20S
LIMON          MOSUNNY   58  47  66 N16       30.19S
MONUMENT HILL  MOSUNNY   54  39  58 CALM      30.26F
TRINIDAD       MOSUNNY   64  48  56 NE13      30.19R
$$

COZ042>045-048>051-090-091-291700-
...NORTHEAST COLORADO...

CITY           SKY/WX    TMP DP  RH WIND       PRES   REMARKS
GREELEY ARPT   PTSUNNY   59  43  55 N9        30.20S
AKRON          MOSUNNY   60  51  72 N21       30.16R
BURLINGTON     MOSUNNY   64  51  62 N16       30.13S
WRAY           MOSUNNY   65  53  64 N12       30.12S
STERLING       MOSUNNY   61  54  77 N17G23    30.14S
HOLYOKE        MOSUNNY   64  54  68 NW15      30.12S
FORT MORGAN    PTSUNNY   61  49  65 N15       30.19R
$$

COZ086-089-092>099-291700-
...SOUTHEAST COLORADO...

CITY           SKY/WX    TMP DP  RH WIND       PRES   REMARKS
PUEBLO         SUNNY     65  49  56 N7        30.15S
LA JUNTA       SUNNY     68  49  50 NE13G18   30.13F
LAMAR          SUNNY     68  52  56 NE10      30.10S
SPRINGFIELD      N/A     66  50  56 N20       30.11S
$$


USA.gov is the U.S. government's official web portal to all federal, state and local government web resources and services.